When you browse on this site, cookies collect data to enhance your experience and personalize the content and advertising you see.
Visit our Privacy Policy to learn more. By continuing to use the site, you agree to this use of cookies and data.
  • In Netherlands
  • List of Countries
  • For 7 days
  • Water Temperature
  • Satellite Maps
  • Weather Map
  • Weather Widgets
  • user-avatar
    Login

    Hourly Weather Łęczyca

    Today, 24 June, Monday

    Time Temperature Precipitation Wind Pressure Humidity
    00:00 +14°C° 0 mm 3 mps 758 mmHg 87%
    01:00 +14°C° 0 mm 3 mps 759 mmHg 92%
    02:00 +14°C° 0 mm 3 mps 759 mmHg 92%
    03:00 +13°C° 0 mm 3 mps 759 mmHg 92%
    04:00 +13°C° 0 mm 3 mps 759 mmHg 93%
    05:00 +16°C° 0 mm 3 mps 759 mmHg 88%
    06:00 +18°C° 0 mm 3 mps 759 mmHg 83%
    07:00 +20°C° 0 mm 3 mps 760 mmHg 78%
    08:00 +21°C° 0 mm 3 mps 760 mmHg 72%
    09:00 +24°C° 0 mm 3 mps 760 mmHg 66%
    10:00 +26°C° 0 mm 3 mps 759 mmHg 60%
    11:00 +26°C° 0 mm 4 mps 760 mmHg 57%
    12:00 +27°C° 0 mm 4 mps 760 mmHg 53%
    13:00 +28°C° 0 mm 4 mps 760 mmHg 50%
    14:00 +28°C° 0 mm 4 mps 760 mmHg 51%
    15:00 +28°C° 0 mm 4 mps 760 mmHg 52%
    16:00 +27°C° 0 mm 4 mps 759 mmHg 54%
    17:00 +26°C° 0 mm 4 mps 760 mmHg 60%
    18:00 +25°C° 0 mm 3 mps 760 mmHg 67%
    19:00 +24°C° 0 mm 3 mps 760 mmHg 73%
    20:00 +21°C° 0 mm 3 mps 760 mmHg 75%
    21:00 +20°C° 0 mm 3 mps 761 mmHg 78%
    22:00 +18°C° 0 mm 3 mps 761 mmHg 80%
    23:00 +18°C° 0 mm 3 mps 761 mmHg 80%

    Tomorrow, 25 June, Tuesday

    Time Temperature Precipitation Wind Pressure Humidity
    00:00 +17°C° 0 mm 3 mps 761 mmHg 80%
    01:00 +17°C° 0 mm 3 mps 761 mmHg 80%
    02:00 +16°C° 0 mm 3 mps 761 mmHg 82%
    03:00 +16°C° 0 mm 3 mps 761 mmHg 83%
    04:00 +14°C° 0 mm 3 mps 761 mmHg 85%
    05:00 +17°C° 0 mm 3 mps 761 mmHg 81%
    06:00 +19°C° 0 mm 4 mps 761 mmHg 78%
    07:00 +21°C° 0 mm 4 mps 761 mmHg 74%
    08:00 +22°C° 0 mm 4 mps 761 mmHg 70%
    09:00 +25°C° 0 mm 5 mps 761 mmHg 66%
    10:00 +26°C° 0 mm 5 mps 761 mmHg 62%
    11:00 +27°C° 0 mm 5 mps 761 mmHg 58%
    12:00 +28°C° 0 mm 5 mps 761 mmHg 56%
    13:00 +28°C° 0 mm 5 mps 761 mmHg 54%
    14:00 +28°C° 0 mm 5 mps 760 mmHg 54%
    15:00 +29°C° 0 mm 5 mps 760 mmHg 54%
    16:00 +29°C° 0 mm 5 mps 760 mmHg 55%
    17:00 +27°C° 0 mm 4 mps 760 mmHg 59%
    18:00 +26°C° 0 mm 4 mps 760 mmHg 64%
    19:00 +25°C° 0 mm 4 mps 760 mmHg 69%
    20:00 +22°C° 0 mm 4 mps 760 mmHg 71%
    21:00 +21°C° 0 mm 3 mps 760 mmHg 73%
    22:00 +19°C° 0 mm 3 mps 760 mmHg 75%
    23:00 +19°C° 0 mm 3 mps 760 mmHg 77%

    Day after tomorrow, 26 June, Wednesday

    Time Temperature Precipitation Wind Pressure Humidity
    00:00 +18°C° 0 mm 3 mps 760 mmHg 80%
    01:00 +18°C° 0 mm 3 mps 760 mmHg 82%
    02:00 +18°C° 0 mm 3 mps 760 mmHg 85%
    03:00 +17°C° 0 mm 3 mps 759 mmHg 88%
    04:00 +17°C° 0 mm 2 mps 759 mmHg 90%
    05:00 +19°C° 0 mm 3 mps 759 mmHg 86%
    06:00 +20°C° 0 mm 3 mps 759 mmHg 83%
    07:00 +22°C° 0 mm 3 mps 759 mmHg 79%
    08:00 +25°C° 0 mm 3 mps 759 mmHg 71%
    09:00 +27°C° 0 mm 3 mps 758 mmHg 63%
    10:00 +28°C° 0 mm 2 mps 758 mmHg 55%
    11:00 +30°C° 0 mm 2 mps 758 mmHg 52%
    12:00 +31°C° 0 mm 2 mps 758 mmHg 48%
    13:00 +32°C° 0 mm 2 mps 757 mmHg 45%
    14:00 +32°C° 0 mm 2 mps 757 mmHg 45%
    15:00 +34°C° 0 mm 2 mps 756 mmHg 46%
    16:00 +34°C° 0 mm 2 mps 755 mmHg 46%
    17:00 +32°C° 0 mm 2 mps 755 mmHg 52%
    18:00 +31°C° 0 mm 2 mps 755 mmHg 58%
    19:00 +29°C° 0 mm 1 mps 754 mmHg 64%
    20:00 +28°C° 0 mm 2 mps 754 mmHg 65%
    21:00 +27°C° 0 mm 2 mps 754 mmHg 65%
    22:00 +26°C° 0 mm 3 mps 754 mmHg 66%
    23:00 +25°C° 0.5 mm 3 mps 753 mmHg 71%

    27 June, Thursday

    Time Temperature Precipitation Wind Pressure Humidity
    00:00 +25°C° 0.5 mm 4 mps 753 mmHg 76%
    01:00 +23°C° 0.5 mm 4 mps 753 mmHg 82%
    02:00 +22°C° 0.5 mm 4 mps 753 mmHg 86%
    03:00 +22°C° 0.5 mm 4 mps 752 mmHg 90%
    04:00 +22°C° 0.5 mm 4 mps 752 mmHg 94%
    05:00 +22°C° 0 mm 5 mps 752 mmHg 91%
    06:00 +22°C° 0 mm 6 mps 752 mmHg 89%
    07:00 +22°C° 0 mm 7 mps 752 mmHg 87%
    08:00 +22°C° 0.2 mm 7 mps 753 mmHg 83%
    09:00 +23°C° 0.2 mm 8 mps 753 mmHg 78%
    10:00 +24°C° 0.2 mm 8 mps 753 mmHg 74%
    11:00 +24°C° 0.1 mm 8 mps 753 mmHg 73%
    12:00 +24°C° 0.1 mm 7 mps 753 mmHg 72%
    13:00 +24°C° 0.1 mm 7 mps 753 mmHg 71%
    14:00 +24°C° 0.2 mm 7 mps 753 mmHg 70%
    15:00 +24°C° 0.2 mm 7 mps 753 mmHg 70%
    16:00 +24°C° 0.2 mm 6 mps 753 mmHg 70%
    17:00 +23°C° 0.2 mm 5 mps 753 mmHg 74%
    18:00 +22°C° 0.2 mm 4 mps 753 mmHg 78%
    19:00 +21°C° 0.2 mm 3 mps 753 mmHg 82%
    20:00 +19°C° 0 mm 3 mps 753 mmHg 83%
    21:00 +18°C° 0 mm 2 mps 754 mmHg 83%
    22:00 +18°C° 0 mm 1 mps 754 mmHg 84%
    23:00 +16°C° 0 mm 1 mps 754 mmHg 84%

    28 June, Friday

    Time Temperature Precipitation Wind Pressure Humidity
    00:00 +16°C° 0 mm 1 mps 754 mmHg 85%
    01:00 +14°C° 0 mm 0 mps 754 mmHg 85%
    02:00 +15°C° 0 mm 1 mps 753 mmHg 87%
    03:00 +15°C° 0 mm 1 mps 753 mmHg 89%
    04:00 +16°C° 0 mm 2 mps 753 mmHg 91%
    05:00 +16°C° 0.1 mm 3 mps 753 mmHg 89%
    06:00 +17°C° 0.1 mm 4 mps 752 mmHg 87%
    07:00 +18°C° 0.1 mm 4 mps 752 mmHg 85%
    08:00 +17°C° 0.1 mm 5 mps 752 mmHg 81%
    09:00 +19°C° 0.1 mm 6 mps 752 mmHg 77%
    10:00 +19°C° 0.1 mm 6 mps 752 mmHg 73%
    11:00 +20°C° 0 mm 6 mps 752 mmHg 71%
    12:00 +20°C° 0 mm 6 mps 752 mmHg 70%
    13:00 +21°C° 0 mm 6 mps 752 mmHg 69%
    14:00 +21°C° 0.1 mm 6 mps 753 mmHg 63%
    15:00 +22°C° 0.1 mm 6 mps 753 mmHg 57%
    16:00 +23°C° 0.1 mm 6 mps 753 mmHg 51%
    17:00 +22°C° 0 mm 5 mps 753 mmHg 57%
    18:00 +21°C° 0 mm 4 mps 754 mmHg 62%
    19:00 +19°C° 0 mm 3 mps 754 mmHg 68%
    20:00 +18°C° 0 mm 3 mps 754 mmHg 69%
    21:00 +16°C° 0 mm 2 mps 754 mmHg 69%
    22:00 +14°C° 0 mm 2 mps 755 mmHg 70%
    23:00 +14°C° 0 mm 2 mps 755 mmHg 69%

    29 June, Saturday

    Time Temperature Precipitation Wind Pressure Humidity
    00:00 +13°C° 0 mm 1 mps 755 mmHg 68%
    01:00 +13°C° 0 mm 1 mps 755 mmHg 68%
    02:00 +13°C° 0 mm 2 mps 754 mmHg 66%
    03:00 +13°C° 0 mm 2 mps 754 mmHg 65%
    04:00 +13°C° 0 mm 2 mps 754 mmHg 64%
    05:00 +14°C° 0 mm 3 mps 754 mmHg 64%
    06:00 +15°C° 0 mm 4 mps 753 mmHg 65%
    07:00 +18°C° 0 mm 4 mps 753 mmHg 65%
    08:00 +19°C° 0.1 mm 4 mps 753 mmHg 64%
    09:00 +21°C° 0.1 mm 5 mps 753 mmHg 63%
    10:00 +23°C° 0.1 mm 5 mps 753 mmHg 62%
    11:00 +23°C° 0.2 mm 5 mps 752 mmHg 59%
    12:00 +23°C° 0.2 mm 5 mps 752 mmHg 57%
    13:00 +25°C° 0.2 mm 5 mps 752 mmHg 55%
    14:00 +25°C° 0 mm 5 mps 752 mmHg 53%
    15:00 +25°C° 0 mm 5 mps 752 mmHg 52%
    16:00 +25°C° 0 mm 5 mps 752 mmHg 51%
    17:00 +23°C° 0 mm 4 mps 752 mmHg 54%
    18:00 +21°C° 0 mm 3 mps 753 mmHg 58%
    19:00 +20°C° 0 mm 3 mps 753 mmHg 62%
    20:00 +18°C° 0 mm 2 mps 753 mmHg 62%
    21:00 +17°C° 0 mm 2 mps 754 mmHg 63%
    22:00 +15°C° 0 mm 2 mps 754 mmHg 63%
    23:00 +15°C° 0 mm 2 mps 754 mmHg 62%
    Show more